Voltar ao catálogo

NOAA 16 DEB

AtivoPO
NORAD 41406·DEBRIS·🇺🇸 United States

Lançado Sep 21, 2000 de Vandenberg Space Force Base

Loading…

Próximas Passagens (próximas 24 horas)

TLE

AtualizadoSource: Space-Track

Época: Sep 13, 2026, 02:05 UTC

1 41406U 00055KK  26256.08682217  .00004603  00000-0  10043-2 0  9993
2 41406  98.9480 117.8192 0028095 134.0745 226.2771 14.58154864551624

Acompanhe NOAA 16 DEB em tempo real com AllMySat

Download on the App Store